CST,Max TemperatureF,Mean TemperatureF,Min TemperatureF,Max Dew PointF,MeanDew PointF,Min DewpointF,Max Humidity, Mean Humidity, Min Humidity, Max Sea Level PressureIn, Mean Sea Level PressureIn, Min Sea Level PressureIn, Max VisibilityMiles, Mean VisibilityMiles, Min VisibilityMiles, Max Wind SpeedMPH, Mean Wind SpeedMPH, Max Gust SpeedMPH,PrecipitationIn, CloudCover, Events, WindDirDegrees
2012-12-1,35,30,24,32,27,25,100,95,86,29.76,29.70,29.60,10,6,0,10,3,,0.00,5,Fog,31
2012-12-2,48,34,21,32,29,21,100,83,54,29.69,29.48,29.23,10,9,3,18,7,20,0.00,1,,144
2012-12-3,48,34,19,37,25,16,93,73,54,29.99,29.70,29.34,10,10,10,28,15,36,0.00,1,Rain,288
2012-12-4,24,17,10,18,14,9,93,81,69,30.18,30.09,29.97,10,10,8,14,6,18,0.00,1,,99
2012-12-5,48,36,23,32,26,18,86,68,50,29.96,29.71,29.55,10,10,9,20,9,29,0.00,0,,204
2012-12-6,35,25,14,28,22,12,93,79,52,29.98,29.91,29.80,10,10,8,21,10,28,0.00,2,,267
2012-12-7,19,16,12,18,16,9,100,94,85,29.96,29.89,29.77,10,6,1,15,6,17,0.33,7,Snow,100
2012-12-8,19,10,0,18,8,-4,100,88,78,30.23,29.87,29.70,10,5,0,18,11,23,4.98,6,Rain-Snow,51
2012-12-9,5,-6,-16,0,-10,-22,92,81,71,30.39,30.23,29.88,10,10,10,12,6,,0.00,1,,218
2012-12-10,26,16,5,23,14,-2,93,79,67,29.86,29.70,29.63,10,10,3,20,9,29,0.03,5,Rain-Snow,270
2012-12-11,33,25,17,28,19,16,93,83,70,29.76,29.63,29.43,10,10,2,17,9,24,0.07,5,Snow,158
2012-12-12,28,19,10,25,18,9,100,93,80,29.89,29.66,29.46,10,7,0,10,6,,0.00,5,Fog-Snow,79
2012-12-13,33,22,12,32,19,9,100,90,79,29.93,29.88,29.81,10,9,4,14,8,,0.00,8,Snow,125
2012-12-14,28,17,6,28,16,3,100,94,80,29.81,29.70,29.63,10,8,0,8,4,,0.00,3,Fog,167
2012-12-15,21,13,5,21,14,1,100,95,85,29.80,29.75,29.67,10,4,0,8,4,,0.00,6,Fog,258
2012-12-16,17,11,5,18,12,1,100,93,85,29.76,29.70,29.64,10,6,0,10,5,,0.00,6,Fog-Snow,128
2012-12-17,19,8,-2,18,8,-6,100,90,85,29.64,29.50,29.40,10,6,0,14,4,,0.00,3,Fog-Rain,124
2012-12-18,32,23,14,28,18,9,100,87,73,29.66,29.50,29.41,10,9,2,23,10,33,0.15,5,Rain-Snow,238
2012-12-19,15,6,-2,10,6,-6,92,83,73,30.05,29.90,29.67,10,7,2,17,12,24,0.62,6,Rain-Snow,279
2012-12-20,14,4,-7,7,-3,-13,92,83,67,30.05,30.03,30.00,10,10,9,9,2,,0.00,0,Snow,195
2012-12-21,26,13,0,18,8,-4,92,81,68,30.01,29.96,29.92,10,10,10,13,4,,0.00,0,,133
2012-12-22,14,7,0,9,0,-4,92,83,72,30.16,30.11,30.01,10,10,10,12,6,,0.00,2,Snow,16
2012-12-23,6,3,0,3,1,-4,92,83,78,30.11,30.05,30.01,10,7,1,14,9,17,0.14,7,Rain-Snow,93
2012-12-24,5,-2,-9,0,-4,-13,92,82,72,30.37,30.21,30.10,10,10,3,8,3,,0.05,7,Snow,50
2012-12-25,3,-4,-13,0,-4,-17,92,84,77,30.41,30.34,30.21,10,8,2,7,4,,0.00,7,Snow,319
2012-12-26,6,-7,-20,3,-8,-27,92,80,69,30.21,30.06,29.97,10,10,7,15,3,,0.00,5,Snow,103
2012-12-27,8,-2,-11,5,-2,-17,92,83,77,30.01,29.98,29.96,10,9,3,8,3,,0.02,4,Snow,135
2012-12-28,10,2,-7,5,-2,-9,92,84,72,29.99,29.96,29.93,10,10,4,10,4,,0.00,3,Snow,237
2012-12-29,24,11,-2,16,10,-6,93,82,68,29.96,29.93,29.90,10,10,10,16,6,16,0.00,2,,227
2012-12-30,23,16,8,19,12,5,93,85,79,30.09,29.97,29.90,10,10,3,14,7,,0.04,6,Rain-Snow,286
2012-12-31,15,8,0,12,7,-2,92,85,79,30.10,30.06,30.02,10,9,2,10,4,,0.00,7,Snow,91